Location: Newark
(25.4800°N, 85.7200°E)
Time: 20:07:41
(UTC+00:00)

Explorer 11/Cluster Stage 4 - Pass Details

Date: 26 August 2019
Orbit: 467 x 1260 km, 28.8° (Epoch: 23 September)

Event Time Altitude Azimuth Distance (km) Brightness Sun altitude
Rises 02:05:10 0° 235° (SW) 3,602 9.5 28.3°
Reaches altitude 10° 02:07:40 10° 230° (SW) 2,768 9.1 28.9°
Maximum altitude 02:14:25 54° 155° (SSE) 1,353 8.5 30.4°
Drops below altitude 10° 02:22:14 10° 80° (E) 3,194 11.1 32.2°
Sets 02:25:20 0° 76° (ENE) 4,193 11.3 32.9°
